Home   Weather   Visalia   Past weeks

Flag for USA Past Weather in Visalia, California, USA — Yesterday and Last 2 Weeks

Now
56 °F

Clear.


Feels Like: 54 °F
Forecast: 51 / 72 °F
Wind: 7 mph from Northwest

Location: Visalia Municipal

Current Time: Apr 26, 2017 at 1:30:37 am

Latest Report: Apr 26, 2017 at 12:56 am


Visibility: 10 mi

Pressure: 30.08 "Hg

Humidity: 81%

Dew Point: 50 °F

Location of VisaliaLocation

Past Weather in Visalia — Graph

°F

Visalia Temperature Yesterday

Maximum temperature yesterday: 73 °F (at 4:56 pm)
Minimum temperature yesterday: 49 °F (at 5:56 am)
Average temperature yesterday: 61 °F

High & Low Weather Summary for the Past Weeks

 TemperatureHumidityPressure
High81 °F (Apr 22, 2:56 pm)100% (Apr 18, 6:26 am)30.26 "Hg (Apr 18, 6:26 am)
Low41 °F (Apr 15, 6:56 am)23% (Apr 16, 4:56 pm)29.90 "Hg (Apr 22, 6:56 pm)
Average61 °F66%30.07 "Hg
* Reported Apr 10 11:56 pm — Apr 25 11:56 pm, Visalia, Weather by CustomWeather, © 2017

Note: Actual official high and low records may vary slightly from our data, if they occured in-between our weather recording intervals... More about our weather records

Advertising

Visalia Weather History for the Previous 24 Hours

Scroll right to see more
 ConditionsComfort  
Time TempWeatherWind HumidityBarometerVisibility
11:56 pm
Tue, Apr 25
57 °FClear.9 mph69%30.07 "Hg10 mi
10:56 pm58 °FClear.6 mph62%30.06 "Hg10 mi
9:56 pm60 °FClear.3 mph53%30.06 "Hg10 mi
8:56 pm63 °FClear.9 mph47%30.04 "Hg10 mi
7:56 pm65 °FClear.10 mph42%30.01 "Hg10 mi
6:56 pm69 °FSunny.13 mph36%30.00 "Hg10 mi
5:56 pm72 °FSunny.10 mph33%30.00 "Hg10 mi
4:56 pm73 °FSunny.14 mph33%30.00 "Hg10 mi
3:56 pm72 °FSunny.15 mph37%30.01 "Hg10 mi
2:56 pm70 °FSunny.9 mph42%30.03 "Hg10 mi
1:56 pm67 °FScattered clouds.7 mph49%30.05 "Hg10 mi
12:56 pm66 °FSunny.10 mph49%30.05 "Hg10 mi
11:56 am65 °FSunny.10 mph52%30.07 "Hg10 mi
10:56 am64 °FSunny.12 mph54%30.09 "Hg10 mi
9:56 am61 °FSunny.12 mph58%30.05 "Hg10 mi
8:56 am58 °FSunny.14 mph65%30.04 "Hg10 mi
7:56 am54 °FSunny.12 mph77%30.04 "Hg10 mi
6:56 am50 °FSunny.6 mph89%30.02 "Hg10 mi
5:56 am49 °FClear.7 mph90%30.00 "Hg10 mi
4:56 am51 °FClear.6 mph89%29.99 "Hg10 mi
3:56 am51 °FClear.7 mph89%29.99 "Hg10 mi
2:56 am53 °FClear.6 mph86%30.00 "Hg10 mi
1:56 am55 °FClear.9 mph80%30.01 "Hg10 mi
Weather by CustomWeather, © 2017

See weather overviewHow to use our weather pages